When you browse on this site, cookies collect data to enhance your experience and personalize the content and advertising you see.
Visit our Privacy Policy to learn more. By continuing to use the site, you agree to this use of cookies and data.
  • In Österreich
  • Länderverzeichnis
  • Für 7 Tage
  • Wassertemperatur
  • Satellitenkarten
  • Wetterkarte
  • News
  • Widgets
  • user-avatar
    Anmelden

    Stündliche Wetter Bregenz

    Heute, 23 Januar, Mittwoch

    Zeit Temperatur Niederschläge Wind Luftdruck Luftfeuchtigkeit
    00:00 -13°C° 0 mm 2 m/S 631 mmHg 77%
    01:00 -14°C° 0 mm 2 m/S 630 mmHg 75%
    02:00 -14°C° 0 mm 2 m/S 630 mmHg 75%
    03:00 -14°C° 0 mm 2 m/S 629 mmHg 75%
    04:00 -14°C° 0 mm 2 m/S 629 mmHg 75%
    05:00 -14°C° 0 mm 2 m/S 629 mmHg 74%
    06:00 -14°C° 0 mm 2 m/S 628 mmHg 74%
    07:00 -14°C° 0 mm 2 m/S 628 mmHg 74%
    08:00 -11°C° 0 mm 1 m/S 628 mmHg 73%
    09:00 -9°C° 0 mm 1 m/S 628 mmHg 73%
    10:00 -8°C° 0 mm 1 m/S 628 mmHg 73%
    11:00 -7°C° 0 mm 1 m/S 628 mmHg 70%
    12:00 -6°C° 0 mm 1 m/S 628 mmHg 67%
    13:00 -3°C° 0 mm 1 m/S 628 mmHg 64%
    14:00 -4°C° 0 mm 1 m/S 628 mmHg 70%
    15:00 -4°C° 0 mm 1 m/S 628 mmHg 77%
    16:00 -6°C° 0 mm 1 m/S 628 mmHg 83%
    17:00 -8°C° 0 mm 1 m/S 628 mmHg 85%
    18:00 -9°C° 0 mm 1 m/S 628 mmHg 88%
    19:00 -11°C° 0 mm 0 m/S 628 mmHg 90%
    20:00 -11°C° 0 mm 1 m/S 628 mmHg 89%
    21:00 -11°C° 0 mm 1 m/S 628 mmHg 89%
    22:00 -11°C° 0 mm 1 m/S 629 mmHg 89%
    23:00 -12°C° 0 mm 1 m/S 629 mmHg 88%

    Morgen, 24 Januar, Donnerstag

    Zeit Temperatur Niederschläge Wind Luftdruck Luftfeuchtigkeit
    00:00 -12°C° 0 mm 1 m/S 629 mmHg 88%
    01:00 -12°C° 0 mm 1 m/S 630 mmHg 88%
    02:00 -12°C° 0 mm 1 m/S 630 mmHg 87%
    03:00 -13°C° 0 mm 1 m/S 630 mmHg 87%
    04:00 -13°C° 0 mm 1 m/S 631 mmHg 86%
    05:00 -13°C° 0 mm 1 m/S 631 mmHg 85%
    06:00 -13°C° 0 mm 1 m/S 631 mmHg 85%
    07:00 -13°C° 0 mm 1 m/S 632 mmHg 84%
    08:00 -12°C° 0 mm 1 m/S 633 mmHg 83%
    09:00 -10°C° 0 mm 1 m/S 633 mmHg 83%
    10:00 -9°C° 0 mm 1 m/S 634 mmHg 82%
    11:00 -8°C° 0 mm 1 m/S 634 mmHg 82%
    12:00 -7°C° 0 mm 1 m/S 634 mmHg 82%
    13:00 -7°C° 0 mm 1 m/S 634 mmHg 82%
    14:00 -7°C° 0.1 mm 1 m/S 635 mmHg 84%
    15:00 -7°C° 0.1 mm 1 m/S 635 mmHg 85%
    16:00 -7°C° 0.1 mm 1 m/S 635 mmHg 86%
    17:00 -8°C° 0.1 mm 1 m/S 635 mmHg 89%
    18:00 -8°C° 0.1 mm 1 m/S 636 mmHg 92%
    19:00 -9°C° 0.1 mm 1 m/S 636 mmHg 94%
    20:00 -9°C° 0.2 mm 1 m/S 637 mmHg 94%
    21:00 -9°C° 0.2 mm 1 m/S 637 mmHg 95%
    22:00 -9°C° 0.2 mm 1 m/S 638 mmHg 95%
    23:00 -10°C° 0.1 mm 1 m/S 638 mmHg 95%

    übermorgen, 25 Januar, Freitag

    Zeit Temperatur Niederschläge Wind Luftdruck Luftfeuchtigkeit
    00:00 -10°C° 0.1 mm 1 m/S 638 mmHg 95%
    01:00 -10°C° 0.1 mm 1 m/S 638 mmHg 95%
    02:00 -11°C° 0.1 mm 1 m/S 638 mmHg 95%
    03:00 -11°C° 0.1 mm 1 m/S 637 mmHg 94%
    04:00 -12°C° 0.1 mm 1 m/S 637 mmHg 94%
    05:00 -12°C° 0 mm 1 m/S 637 mmHg 94%
    06:00 -13°C° 0 mm 1 m/S 637 mmHg 94%
    07:00 -13°C° 0 mm 1 m/S 637 mmHg 93%
    08:00 -12°C° 0 mm 1 m/S 638 mmHg 91%
    09:00 -11°C° 0 mm 1 m/S 638 mmHg 88%
    10:00 -11°C° 0 mm 1 m/S 638 mmHg 85%
    11:00 -10°C° 0 mm 1 m/S 639 mmHg 82%
    12:00 -9°C° 0 mm 1 m/S 639 mmHg 79%
    13:00 -8°C° 0 mm 1 m/S 639 mmHg 77%
    14:00 -8°C° 0 mm 1 m/S 639 mmHg 78%
    15:00 -8°C° 0 mm 1 m/S 639 mmHg 80%
    16:00 -8°C° 0 mm 1 m/S 640 mmHg 81%
    17:00 -9°C° 0 mm 1 m/S 640 mmHg 84%
    18:00 -10°C° 0 mm 0 m/S 641 mmHg 86%
    19:00 -11°C° 0 mm 0 m/S 641 mmHg 88%
    20:00 -12°C° 0 mm 1 m/S 641 mmHg 88%
    21:00 -12°C° 0 mm 1 m/S 642 mmHg 88%
    22:00 -13°C° 0 mm 1 m/S 642 mmHg 88%
    23:00 -13°C° 0 mm 1 m/S 642 mmHg 87%

    26 Januar, Samstag

    Zeit Temperatur Niederschläge Wind Luftdruck Luftfeuchtigkeit
    00:00 -16°C° 0 mm 2 m/S 642 mmHg 86%
    01:00 -16°C° 0 mm 2 m/S 641 mmHg 86%
    02:00 -16°C° 0 mm 2 m/S 641 mmHg 84%
    03:00 -16°C° 0 mm 2 m/S 641 mmHg 82%
    04:00 -16°C° 0 mm 2 m/S 641 mmHg 79%
    05:00 -16°C° 0 mm 2 m/S 641 mmHg 77%
    06:00 -16°C° 0 mm 2 m/S 641 mmHg 75%
    07:00 -16°C° 0 mm 2 m/S 641 mmHg 73%
    08:00 -14°C° 0 mm 2 m/S 642 mmHg 71%
    09:00 -12°C° 0 mm 2 m/S 642 mmHg 70%
    10:00 -10°C° 0 mm 2 m/S 642 mmHg 68%
    11:00 -8°C° 0 mm 2 m/S 642 mmHg 65%
    12:00 -4°C° 0 mm 1 m/S 641 mmHg 62%
    13:00 -2°C° 0 mm 1 m/S 641 mmHg 59%
    14:00 -2°C° 0 mm 1 m/S 641 mmHg 63%
    15:00 -2°C° 0 mm 1 m/S 640 mmHg 67%
    16:00 -2°C° 0 mm 1 m/S 639 mmHg 71%
    17:00 -3°C° 0 mm 1 m/S 639 mmHg 73%
    18:00 -6°C° 0 mm 2 m/S 638 mmHg 74%
    19:00 -7°C° 0 mm 2 m/S 638 mmHg 76%
    20:00 -7°C° 0 mm 2 m/S 638 mmHg 77%
    21:00 -7°C° 0 mm 2 m/S 637 mmHg 77%
    22:00 -8°C° 0 mm 3 m/S 637 mmHg 78%
    23:00 -8°C° 0 mm 3 m/S 636 mmHg 78%

    27 Januar, Sonntag

    Zeit Temperatur Niederschläge Wind Luftdruck Luftfeuchtigkeit
    00:00 -7°C° 0 mm 3 m/S 635 mmHg 79%
    01:00 -7°C° 0 mm 3 m/S 634 mmHg 80%
    02:00 -7°C° 0.3 mm 3 m/S 634 mmHg 81%
    03:00 -6°C° 0.3 mm 3 m/S 633 mmHg 82%
    04:00 -5°C° 0.3 mm 2 m/S 633 mmHg 84%
    05:00 -5°C° 1.2 mm 2 m/S 633 mmHg 87%
    06:00 -5°C° 1.2 mm 2 m/S 633 mmHg 91%
    07:00 -5°C° 1.2 mm 3 m/S 633 mmHg 95%
    08:00 -6°C° 1.4 mm 3 m/S 633 mmHg 95%
    09:00 -7°C° 1.4 mm 3 m/S 633 mmHg 95%
    10:00 -7°C° 1.4 mm 3 m/S 633 mmHg 95%
    11:00 -7°C° 0.7 mm 3 m/S 633 mmHg 94%
    12:00 -7°C° 0.7 mm 3 m/S 633 mmHg 93%
    13:00 -8°C° 0.7 mm 3 m/S 633 mmHg 92%
    14:00 -9°C° 0.8 mm 4 m/S 633 mmHg 91%
    15:00 -10°C° 0.8 mm 4 m/S 634 mmHg 90%
    16:00 -10°C° 0.8 mm 4 m/S 634 mmHg 89%
    17:00 -10°C° 0.1 mm 3 m/S 634 mmHg 89%
    18:00 -10°C° 0.1 mm 2 m/S 634 mmHg 90%
    19:00 -12°C° 0.1 mm 2 m/S 635 mmHg 91%
    20:00 -12°C° 0.1 mm 2 m/S 635 mmHg 90%
    21:00 -12°C° 0.1 mm 2 m/S 634 mmHg 89%
    22:00 -13°C° 0.1 mm 2 m/S 634 mmHg 88%
    23:00 -13°C° 0 mm 2 m/S 634 mmHg 86%

    28 Januar, Montag

    Zeit Temperatur Niederschläge Wind Luftdruck Luftfeuchtigkeit
    00:00 -14°C° 0 mm 2 m/S 634 mmHg 85%
    01:00 -14°C° 0 mm 2 m/S 633 mmHg 84%
    02:00 -15°C° 0 mm 2 m/S 633 mmHg 83%
    03:00 -15°C° 0 mm 2 m/S 633 mmHg 82%
    04:00 -15°C° 0 mm 2 m/S 633 mmHg 81%
    05:00 -16°C° 0 mm 2 m/S 633 mmHg 80%
    06:00 -16°C° 0 mm 2 m/S 633 mmHg 80%
    07:00 -16°C° 0 mm 2 m/S 633 mmHg 79%
    08:00 -15°C° 0 mm 2 m/S 633 mmHg 80%
    09:00 -12°C° 0 mm 1 m/S 634 mmHg 80%
    10:00 -10°C° 0 mm 1 m/S 635 mmHg 81%
    11:00 -9°C° 0 mm 1 m/S 635 mmHg 81%
    12:00 -8°C° 0 mm 1 m/S 635 mmHg 80%
    13:00 -7°C° 0 mm 1 m/S 635 mmHg 80%
    14:00 -7°C° 0.1 mm 1 m/S 635 mmHg 84%
    15:00 -7°C° 0.1 mm 1 m/S 635 mmHg 87%
    16:00 -7°C° 0.1 mm 1 m/S 635 mmHg 90%
    17:00 -8°C° 0.2 mm 1 m/S 635 mmHg 92%
    18:00 -9°C° 0.2 mm 1 m/S 636 mmHg 93%
    19:00 -9°C° 0.2 mm 1 m/S 636 mmHg 95%
    20:00 -9°C° 0.2 mm 1 m/S 636 mmHg 95%
    21:00 -9°C° 0.2 mm 0 m/S 637 mmHg 95%
    22:00 -9°C° 0.2 mm 0 m/S 637 mmHg 95%
    23:00 -9°C° 0.2 mm 0 m/S 637 mmHg 95%
    Mehr zeigen